Home   Weather   Uster   Past weeks

Flag for Switzerland Past Weather in Uster, Zurich, Switzerland — Yesterday and Last 2 Weeks

Now
24 °F

Cold.


Feels Like: 17 °F
Forecast: 16 / 24 °F
Wind: 6 mph from East

Location: Zuerich-Fluntern

Current Time: Jan 18, 2017 at 7:27:35 pm

Latest Report: Jan 18, 2017 at 6:00 pm


Visibility: N/A

Pressure: 30.49 "Hg

Humidity: 70%

Dew Point: 15 °F

Location of UsterLocation

Past Weather in Uster — Graph

°F

Uster Temperature Yesterday

Maximum temperature yesterday: 24 °F (at 6:00 am)
Minimum temperature yesterday: 22 °F (at 11:00 am)
Average temperature yesterday: 23 °F

High & Low Weather Summary for the Past Weeks

 TemperatureHumidityPressure
High41 °F (Jan 12, 2:00 pm)100% (Jan 7, 6:00 am)30.74 "Hg (Jan 7, 6:00 am)
Low10 °F (Jan 7, 4:00 am)65% (Jan 4, 11:00 am)29.55 "Hg (Jan 13, 12:00 am)
Average28 °F85%30.26 "Hg
* Reported Jan 3 6:00 pm — Jan 18 6:00 pm, Uster, Weather by CustomWeather, © 2017

Note: Actual official high and low records may vary slightly from our data, if they occured in-between our weather recording intervals... More about our weather records

Advertising

Uster Weather History for the Previous 24 Hours

Scroll right to see more
 ConditionsComfort  
Time TempWeatherWind HumidityBarometerVisibility
6:00 pm
Wed, Jan 18
24 °FCold.6 mph70%30.49 "HgN/A
5:00 pm24 °FCold.6 mph70%30.49 "HgN/A
4:00 pm24 °FCold.7 mph70%30.48 "HgN/A
3:00 pm24 °FCold.8 mph71%30.47 "HgN/A
2:00 pm24 °FCold.6 mph72%30.47 "HgN/A
1:00 pm23 °FCold.6 mph73%30.48 "HgN/A
12:00 pm23 °FCold.7 mph80%30.49 "HgN/A
11:00 am22 °FCold.8 mph83%30.50 "HgN/A
10:00 am22 °FCold.8 mph83%30.49 "HgN/A
9:00 am21 °FCold.8 mph80%30.48 "HgN/A
8:00 am21 °FCold.5 mph78%30.47 "HgN/A
7:00 am21 °FCold.7 mph79%30.46 "HgN/A
6:00 am21 °FCold.7 mph79%30.45 "HgN/A
5:00 am22 °FCold.7 mph77%30.45 "HgN/A
4:00 am22 °FCold.6 mph76%30.44 "HgN/A
3:00 am22 °FCold.8 mph76%30.45 "HgN/A
2:00 am22 °FCold.8 mph75%30.45 "HgN/A
1:00 am22 °FCold.10 mph74%30.44 "HgN/A
12:00 am23 °FCold.10 mph73%30.45 "HgN/A
11:00 pm
Tue, Jan 17
23 °FCold.8 mph73%30.45 "HgN/A
10:00 pm23 °FCold.9 mph74%30.44 "HgN/A
9:00 pm23 °FCold.8 mph73%30.44 "HgN/A
8:00 pm23 °FCold.7 mph72%30.43 "HgN/A
7:00 pm23 °FOvercast.8 mph74%30.42 "HgN/A
Weather by CustomWeather, © 2017

See weather overviewHow to use our weather pages